Voltar ao catálogo

STARLINK-32047

AtivoComunicaçõesVLEO
NORAD 61516·PAYLOAD·🇺🇸 United States

Lançado Oct 15, 2024 de Cape Canaveral Space Force Station

Loading…

Próximas Passagens (próximas 24 horas)

TLE

AtualizadoSource: CelesTrak SupGP

Época: Sep 15, 2026, 02:33 UTC

1 61516C 24183H   26258.10673611  .00069535  00000+0  22357-2 0  2581
2 61516  53.1603 341.0806 0001162  89.9905 309.7214 15.31672927    11

Acompanhe STARLINK-32047 em tempo real com AllMySat

Download on the App Store